| time (UTC) | temp C | wind direction | speed KPH | gust KPH | rain 1hr cm | rain 24hr cm | rain mn cm | humidity % | barometer mb |
| 20260503194242 | 18 | 246 | 1.6 | 19.3 | 0.00 | 0.00 | 0.00 | 39 | 1009.9 |
| 20260503193742 | 17 | 205 | 1.6 | 22.5 | 0.00 | 0.00 | 0.00 | 40 | 1010.0 |
| 20260503193242 | 17 | 352 | 3.2 | 17.7 | 0.00 | 0.00 | 0.00 | 39 | 1010.2 |
| 20260503192742 | 17 | 331 | 12.9 | 27.4 | 0.00 | 0.00 | 0.00 | 40 | 1010.4 |
| 20260503192242 | 17 | 316 | 4.8 | 20.9 | 0.00 | 0.00 | 0.00 | 42 | 1010.3 |
| 20260503191742 | 18 | 18 | 3.2 | 16.1 | 0.00 | 0.00 | 0.00 | 41 | 1010.4 |
| 20260503191242 | 17 | 16 | 0.0 | 22.5 | 0.00 | 0.00 | 0.00 | 40 | 1010.5 |
| 20260503190742 | 17 | 268 | 8.0 | 20.9 | 0.00 | 0.00 | 0.00 | 37 | 1010.5 |
| 20260503190242 | 17 | 12 | 8.0 | 30.6 | 0.00 | 0.00 | 0.00 | 38 | 1010.6 |
| 20260503185742 | 17 | 219 | 16.1 | 19.3 | 0.00 | 0.00 | 0.00 | 39 | 1010.8 |
| 20260503185242 | 17 | 227 | 12.9 | 24.1 | 0.00 | 0.00 | 0.00 | 40 | 1010.9 |
| 20260503184742 | 17 | 292 | 1.6 | 17.7 | 0.00 | 0.00 | 0.00 | 39 | 1011.0 |
| 20260503184242 | 17 | 319 | 9.7 | 19.3 | 0.00 | 0.00 | 0.00 | 41 | 1011.0 |
| 20260503183742 | 17 | 164 | 19.3 | 19.3 | 0.00 | 0.00 | 0.00 | 38 | 1011.1 |
| 20260503183242 | 18 | 331 | 12.9 | 19.3 | 0.00 | 0.00 | 0.00 | 36 | 1011.1 |
| 20260503182742 | 18 | 210 | 3.2 | 24.1 | 0.00 | 0.00 | 0.00 | 38 | 1011.1 |
| 20260503182242 | 18 | 291 | 3.2 | 19.3 | 0.00 | 0.00 | 0.00 | 42 | 1011.1 |
| 20260503181742 | 17 | 2 | 3.2 | 24.1 | 0.00 | 0.00 | 0.00 | 43 | 1011.2 |
| 20260503181242 | 17 | 126 | 6.4 | 20.9 | 0.00 | 0.00 | 0.00 | 41 | 1011.1 |
| 20260503180742 | 17 | 295 | 6.4 | 17.7 | 0.00 | 0.00 | 0.00 | 41 | 1011.2 |
| 20260503180242 | 17 | 322 | 0.0 | 20.9 | 0.00 | 0.00 | 0.00 | 45 | 1011.3 |
| 20260503175743 | 17 | 222 | 6.4 | 16.1 | 0.00 | 0.00 | 0.00 | 42 | 1011.3 |
| 20260503175242 | 17 | 327 | 3.2 | 11.3 | 0.00 | 0.00 | 0.00 | 47 | 1011.4 |
| 20260503174742 | 16 | 316 | 9.7 | 16.1 | 0.00 | 0.00 | 0.00 | 47 | 1011.5 |
| 20260503174243 | 16 | 306 | 0.0 | 14.5 | 0.00 | 0.00 | 0.00 | 46 | 1011.6 |
| 20260503173743 | 16 | 317 | 3.2 | 20.9 | 0.00 | 0.00 | 0.00 | 46 | 1011.6 |
| 20260503173243 | 16 | 340 | 6.4 | 20.9 | 0.00 | 0.00 | 0.00 | 44 | 1011.6 |
| 20260503172743 | 16 | 323 | 3.2 | 11.3 | 0.00 | 0.00 | 0.00 | 43 | 1011.7 |
| 20260503172243 | 17 | 307 | 0.0 | 14.5 | 0.00 | 0.00 | 0.00 | 43 | 1011.7 |
| 20260503171743 | 17 | 246 | 3.2 | 22.5 | 0.00 | 0.00 | 0.00 | 42 | 1011.8 |
| 20260503171243 | 17 | 316 | 3.2 | 19.3 | 0.00 | 0.00 | 0.00 | 41 | 1011.8 |
| 20260503170743 | 17 | 343 | 8.0 | 17.7 | 0.00 | 0.00 | 0.00 | 43 | 1011.9 |
| 20260503170243 | 17 | 109 | 0.0 | 14.5 | 0.00 | 0.00 | 0.00 | 41 | 1011.9 |
| 20260503150743 | 13 | 300 | 3.2 | 16.1 | 0.00 | 0.00 | 0.00 | 51 | 1012.8 |
| 20260503150243 | 13 | 307 | 9.7 | 12.9 | 0.00 | 0.00 | 0.00 | 49 | 1012.9 |
| 20260503140243 | 12 | 7 | 6.4 | 17.7 | 0.00 | 0.00 | 0.00 | 57 | 1013.2 |
| 20260503131243 | 10 | 194 | 1.6 | 12.9 | 0.00 | 0.00 | 0.00 | 66 | 1013.5 |
| 20260503130743 | 10 | 219 | 8.0 | 11.3 | 0.00 | 0.00 | 0.00 | 66 | 1013.5 |
| 20260503130243 | 9 | 255 | 1.6 | 11.3 | 0.00 | 0.00 | 0.00 | 66 | 1013.6 |
| 20260503110743 | 3 | 63 | 0.0 | 0.0 | 0.00 | 0.00 | 0.00 | 76 | 1014.2 |
| 20260503110243 | 3 | 63 | 0.0 | 0.0 | 0.00 | 0.00 | 0.00 | 79 | 1014.3 |
| 20260503100243 | 2 | 63 | 0.0 | 0.0 | 0.00 | 0.00 | 0.00 | 78 | 1014.3 |
| 20260503090244 | 2 | 63 | 0.0 | 0.0 | 0.00 | 0.00 | 0.00 | 81 | 1014.5 |
| 20260503081244 | 2 | 63 | 0.0 | 0.0 | 0.00 | 0.00 | 0.00 | 80 | 1014.7 |
| 20260503080744 | 2 | 63 | 0.0 | 0.0 | 0.00 | 0.00 | 0.00 | 80 | 1014.6 |
| 20260503080244 | 2 | 63 | 0.0 | 0.0 | 0.00 | 0.00 | 0.00 | 79 | 1014.7 |
| 20260503072744 | 2 | 63 | 0.0 | 0.0 | 0.00 | 0.00 | 0.00 | 78 | 1014.7 |
| 20260503072244 | 2 | 63 | 0.0 | 0.0 | 0.00 | 0.00 | 0.00 | 78 | 1014.7 |
| 20260503071744 | 2 | 63 | 0.0 | 0.0 | 0.00 | 0.00 | 0.00 | 78 | 1014.6 |
| 20260503071244 | 2 | 63 | 0.0 | 0.0 | 0.00 | 0.00 | 0.00 | 79 | 1014.7 |
| 20260503070744 | 2 | 63 | 0.0 | 0.0 | 0.00 | 0.00 | 0.00 | 80 | 1014.7 |
| 20260503070244 | 2 | 63 | 0.0 | 0.0 | 0.00 | 0.00 | 0.00 | 80 | 1014.7 |
| 20260503060244 | 2 | 63 | 0.0 | 0.0 | 0.00 | 0.00 | 0.00 | 83 | 1015.2 |
| 20260503054744 | 2 | 63 | 0.0 | 0.0 | 0.00 | 0.00 | 0.00 | 83 | 1015.4 |
| 20260503054244 | 2 | 63 | 0.0 | 0.0 | 0.00 | 0.00 | 0.00 | 83 | 1015.5 |
| 20260503053744 | 2 | 63 | 0.0 | 0.0 | 0.00 | 0.00 | 0.00 | 83 | 1015.5 |
| 20260503053244 | 2 | 63 | 0.0 | 0.0 | 0.00 | 0.00 | 0.00 | 83 | 1015.5 |
| 20260503052744 | 2 | 63 | 0.0 | 0.0 | 0.00 | 0.00 | 0.00 | 83 | 1015.5 |
| 20260503052244 | 2 | 63 | 0.0 | 0.0 | 0.00 | 0.00 | 0.00 | 84 | 1015.5 |
| 20260503051744 | 2 | 63 | 0.0 | 0.0 | 0.00 | 0.00 | 0.00 | 84 | 1015.6 |
| 20260503051244 | 2 | 63 | 0.0 | 0.0 | 0.00 | 0.00 | 0.00 | 84 | 1015.6 |
| 20260503050744 | 2 | 63 | 0.0 | 0.0 | 0.00 | 0.00 | 0.00 | 85 | 1015.6 |
| 20260503050244 | 2 | 63 | 0.0 | 0.0 | 0.00 | 0.00 | 0.00 | 85 | 1015.7 |
| 20260503045744 | 2 | 63 | 0.0 | 0.0 | 0.00 | 0.00 | 0.00 | 85 | 1015.7 |
| 20260503045244 | 3 | 63 | 0.0 | 0.0 | 0.00 | 0.00 | 0.00 | 86 | 1015.8 |
| 20260503044744 | 3 | 63 | 0.0 | 0.0 | 0.00 | 0.00 | 0.00 | 86 | 1015.8 |
| 20260503044244 | 3 | 63 | 0.0 | 0.0 | 0.00 | 0.00 | 0.00 | 86 | 1015.8 |
| 20260503043744 | 3 | 63 | 0.0 | 0.0 | 0.00 | 0.00 | 0.00 | 85 | 1015.8 |
| 20260503043244 | 3 | 63 | 0.0 | 0.0 | 0.00 | 0.00 | 0.00 | 85 | 1015.8 |
| 20260503042744 | 3 | 63 | 0.0 | 0.0 | 0.00 | 0.00 | 0.00 | 85 | 1015.7 |
| 20260503042244 | 3 | 63 | 0.0 | 0.0 | 0.00 | 0.00 | 0.00 | 85 | 1015.8 |
| 20260503041744 | 3 | 63 | 0.0 | 0.0 | 0.00 | 0.00 | 0.00 | 85 | 1015.8 |
| 20260503041244 | 3 | 63 | 0.0 | 0.0 | 0.00 | 0.00 | 0.00 | 85 | 1015.9 |
| 20260503040744 | 3 | 63 | 0.0 | 0.0 | 0.00 | 0.00 | 0.00 | 84 | 1015.9 |
| 20260503040244 | 3 | 63 | 0.0 | 0.0 | 0.00 | 0.00 | 0.00 | 84 | 1016.0 |
| 20260503035744 | 3 | 63 | 0.0 | 0.0 | 0.00 | 0.00 | 0.00 | 83 | 1016.0 |
| 20260503035244 | 3 | 63 | 0.0 | 0.0 | 0.00 | 0.00 | 0.00 | 83 | 1016.0 |
| 20260503034744 | 3 | 63 | 0.0 | 0.0 | 0.00 | 0.00 | 0.00 | 83 | 1016.0 |
| 20260503034244 | 3 | 63 | 0.0 | 0.0 | 0.00 | 0.00 | 0.00 | 82 | 1016.1 |
| 20260503033744 | 3 | 63 | 0.0 | 0.0 | 0.00 | 0.00 | 0.00 | 82 | 1016.1 |
| 20260503033244 | 3 | 63 | 0.0 | 0.0 | 0.00 | 0.00 | 0.00 | 82 | 1016.2 |
| 20260503032744 | 3 | 63 | 0.0 | 0.0 | 0.00 | 0.00 | 0.00 | 81 | 1016.2 |
| 20260503032244 | 4 | 63 | 0.0 | 0.0 | 0.00 | 0.00 | 0.00 | 80 | 1016.3 |
| 20260503031744 | 4 | 63 | 0.0 | 0.0 | 0.00 | 0.00 | 0.00 | 80 | 1016.2 |
| 20260503031244 | 4 | 63 | 0.0 | 0.0 | 0.00 | 0.00 | 0.00 | 79 | 1016.3 |
| 20260503030744 | 4 | 63 | 0.0 | 0.0 | 0.00 | 0.00 | 0.00 | 78 | 1016.3 |
| 20260503030244 | 4 | 63 | 0.0 | 0.0 | 0.00 | 0.00 | 0.00 | 77 | 1016.3 |
| 20260503025744 | 4 | 63 | 0.0 | 0.0 | 0.00 | 0.00 | 0.00 | 77 | 1016.3 |
| 20260503025244 | 4 | 63 | 0.0 | 0.0 | 0.00 | 0.00 | 0.00 | 77 | 1016.4 |
| 20260503024744 | 5 | 63 | 0.0 | 0.0 | 0.00 | 0.00 | 0.00 | 76 | 1016.4 |
| 20260503024244 | 5 | 63 | 0.0 | 0.0 | 0.00 | 0.00 | 0.00 | 75 | 1016.5 |
| 20260503023744 | 5 | 63 | 0.0 | 0.0 | 0.00 | 0.00 | 0.00 | 75 | 1016.6 |
| 20260503023244 | 5 | 63 | 0.0 | 0.0 | 0.00 | 0.00 | 0.00 | 74 | 1016.6 |
| 20260503022744 | 5 | 63 | 0.0 | 0.0 | 0.00 | 0.00 | 0.00 | 73 | 1016.7 |
| 20260503022244 | 5 | 63 | 0.0 | 0.0 | 0.00 | 0.00 | 0.00 | 74 | 1016.6 |
| 20260503021744 | 5 | 63 | 0.0 | 0.0 | 0.00 | 0.00 | 0.00 | 74 | 1016.6 |
| 20260503021244 | 5 | 63 | 0.0 | 0.0 | 0.00 | 0.00 | 0.00 | 74 | 1016.6 |
| 20260503020744 | 5 | 63 | 0.0 | 0.0 | 0.00 | 0.00 | 0.00 | 73 | 1016.7 |
| 20260503020244 | 5 | 63 | 0.0 | 0.0 | 0.00 | 0.00 | 0.00 | 72 | 1016.6 |
| 20260503015744 | 6 | 63 | 0.0 | 0.0 | 0.00 | 0.00 | 0.00 | 72 | 1016.6 |
| 20260503015244 | 6 | 63 | 0.0 | 0.0 | 0.00 | 0.00 | 0.00 | 72 | 1016.6 |
| 20260503014744 | 6 | 63 | 0.0 | 0.0 | 0.00 | 0.00 | 0.00 | 72 | 1016.7 |
| 20260503014244 | 6 | 63 | 0.0 | 0.0 | 0.00 | 0.00 | 0.00 | 71 | 1016.7 |
| 20260503013744 | 6 | 63 | 0.0 | 0.0 | 0.00 | 0.00 | 0.00 | 71 | 1016.7 |
| 20260503013244 | 6 | 63 | 0.0 | 0.0 | 0.00 | 0.00 | 0.00 | 69 | 1016.7 |
| 20260503012744 | 6 | 63 | 0.0 | 0.0 | 0.00 | 0.00 | 0.00 | 68 | 1016.7 |
| 20260503012244 | 6 | 63 | 0.0 | 0.0 | 0.00 | 0.00 | 0.00 | 68 | 1016.7 |
| 20260503011744 | 7 | 63 | 0.0 | 0.0 | 0.00 | 0.00 | 0.00 | 66 | 1016.7 |
| 20260503011244 | 7 | 63 | 0.0 | 0.0 | 0.00 | 0.00 | 0.00 | 65 | 1016.7 |
| 20260503010744 | 7 | 63 | 0.0 | 0.0 | 0.00 | 0.00 | 0.00 | 64 | 1016.7 |
| 20260503010244 | 7 | 63 | 0.0 | 0.0 | 0.00 | 0.00 | 0.00 | 63 | 1016.7 |
| 20260503005744 | 7 | 63 | 0.0 | 0.0 | 0.00 | 0.00 | 0.00 | 63 | 1016.7 |
| 20260503005244 | 8 | 63 | 0.0 | 0.0 | 0.00 | 0.00 | 0.00 | 63 | 1016.8 |
| 20260503004744 | 8 | 63 | 0.0 | 0.0 | 0.00 | 0.00 | 0.00 | 63 | 1016.8 |
| 20260503004244 | 8 | 63 | 0.0 | 0.0 | 0.00 | 0.00 | 0.00 | 63 | 1016.8 |
| 20260503003745 | 8 | 63 | 0.0 | 0.0 | 0.00 | 0.00 | 0.00 | 61 | 1016.8 |
| 20260503003244 | 8 | 63 | 0.0 | 0.0 | 0.00 | 0.00 | 0.00 | 60 | 1016.8 |
| 20260503002744 | 8 | 63 | 0.0 | 0.0 | 0.00 | 0.00 | 0.00 | 60 | 1016.8 |
| 20260503002245 | 8 | 63 | 0.0 | 0.0 | 0.00 | 0.00 | 0.00 | 59 | 1016.9 |
| 20260503001745 | 8 | 63 | 0.0 | 0.0 | 0.00 | 0.00 | 0.00 | 57 | 1016.9 |
| 20260503001245 | 8 | 63 | 0.0 | 0.0 | 0.00 | 0.00 | 0.00 | 58 | 1016.9 |
| 20260503000745 | 8 | 63 | 0.0 | 0.0 | 0.00 | 0.00 | 0.00 | 55 | 1017.0 |
| 20260503000245 | 8 | 63 | 0.0 | 0.0 | 0.00 | 0.00 | 0.00 | 56 | 1017.0 |
| 20260502235745 | 8 | 63 | 0.0 | 0.0 | 0.00 | 0.00 | 0.00 | 54 | 1017.0 |
| 20260502235245 | 8 | 63 | 0.0 | 0.0 | 0.00 | 0.00 | 0.00 | 54 | 1017.0 |
| 20260502234745 | 9 | 63 | 0.0 | 3.2 | 0.00 | 0.00 | 0.00 | 56 | 1016.8 |
| 20260502234245 | 9 | 198 | 0.0 | 0.0 | 0.00 | 0.00 | 0.00 | 58 | 1017.0 |
| 20260502233745 | 9 | 198 | 0.0 | 0.0 | 0.00 | 0.00 | 0.00 | 54 | 1017.0 |
| 20260502233245 | 9 | 198 | 0.0 | 0.0 | 0.00 | 0.00 | 0.00 | 54 | 1017.0 |
| 20260502232745 | 9 | 198 | 0.0 | 11.3 | 0.00 | 0.00 | 0.00 | 49 | 1016.9 |
| 20260502232245 | 10 | 33 | 0.0 | 4.8 | 0.00 | 0.00 | 0.00 | 52 | 1017.0 |
| 20260502231745 | 10 | 139 | 0.0 | 0.0 | 0.00 | 0.00 | 0.00 | 55 | 1017.0 |
| 20260502231245 | 10 | 139 | 0.0 | 0.0 | 0.00 | 0.00 | 0.00 | 56 | 1017.1 |
| 20260502230745 | 10 | 139 | 0.0 | 0.0 | 0.00 | 0.00 | 0.00 | 54 | 1017.2 |
| 20260502230245 | 10 | 139 | 0.0 | 0.0 | 0.00 | 0.00 | 0.00 | 53 | 1017.1 |
| 20260502225745 | 10 | 139 | 0.0 | 0.0 | 0.00 | 0.00 | 0.00 | 54 | 1017.0 |
| 20260502225245 | 10 | 139 | 0.0 | 0.0 | 0.00 | 0.00 | 0.00 | 52 | 1017.0 |
| 20260502224745 | 10 | 139 | 0.0 | 0.0 | 0.00 | 0.00 | 0.00 | 50 | 1017.1 |
| 20260502224245 | 10 | 139 | 0.0 | 0.0 | 0.00 | 0.00 | 0.00 | 54 | 1017.1 |
| 20260502223745 | 10 | 139 | 0.0 | 0.0 | 0.00 | 0.00 | 0.00 | 54 | 1017.2 |
| 20260502223245 | 10 | 139 | 0.0 | 0.0 | 0.00 | 0.00 | 0.00 | 51 | 1017.2 |
| 20260502222745 | 10 | 139 | 0.0 | 0.0 | 0.00 | 0.00 | 0.00 | 50 | 1017.1 |
| 20260502222245 | 10 | 139 | 0.0 | 0.0 | 0.00 | 0.00 | 0.00 | 50 | 1017.2 |
| 20260502221745 | 10 | 139 | 0.0 | 0.0 | 0.00 | 0.00 | 0.00 | 51 | 1017.2 |
| 20260502221245 | 10 | 139 | 0.0 | 0.0 | 0.00 | 0.00 | 0.00 | 51 | 1017.3 |
| 20260502220745 | 10 | 139 | 0.0 | 0.0 | 0.00 | 0.00 | 0.00 | 48 | 1017.2 |
| 20260502220245 | 10 | 151 | 0.0 | 3.2 | 0.00 | 0.00 | 0.00 | 55 | 1017.2 |
| 20260502215745 | 10 | 315 | 0.0 | 0.0 | 0.00 | 0.00 | 0.00 | 56 | 1017.3 |
| 20260502215245 | 9 | 180 | 0.0 | 3.2 | 0.00 | 0.00 | 0.00 | 56 | 1017.3 |
| 20260502214745 | 9 | 119 | 0.0 | 3.2 | 0.00 | 0.00 | 0.00 | 53 | 1017.2 |
| 20260502214245 | 10 | 147 | 0.0 | 3.2 | 0.00 | 0.00 | 0.00 | 53 | 1017.2 |
| 20260502213745 | 10 | 156 | 0.0 | 4.8 | 0.00 | 0.00 | 0.00 | 52 | 1017.2 |
| 20260502213245 | 10 | 140 | 0.0 | 0.0 | 0.00 | 0.00 | 0.00 | 55 | 1017.3 |
| 20260502212745 | 10 | 140 | 0.0 | 0.0 | 0.00 | 0.00 | 0.00 | 55 | 1017.3 |
| 20260502212245 | 10 | 140 | 0.0 | 0.0 | 0.00 | 0.00 | 0.00 | 52 | 1017.2 |
| 20260502211745 | 11 | 140 | 0.0 | 3.2 | 0.00 | 0.00 | 0.00 | 49 | 1017.2 |
| 20260502211245 | 11 | 90 | 0.0 | 1.6 | 0.00 | 0.00 | 0.00 | 49 | 1017.3 |
| 20260502210745 | 11 | 28 | 0.0 | 3.2 | 0.00 | 0.00 | 0.00 | 51 | 1017.4 |
| 20260502210245 | 11 | 292 | 0.0 | 6.4 | 0.00 | 0.00 | 0.00 | 51 | 1017.4 |
| 20260502205745 | 10 | 292 | 4.8 | 6.4 | 0.00 | 0.00 | 0.00 | 50 | 1017.3 |
| 20260502205245 | 10 | 323 | 0.0 | 6.4 | 0.00 | 0.00 | 0.00 | 52 | 1017.3 |
| 20260502204745 | 10 | 350 | 4.8 | 8.0 | 0.00 | 0.00 | 0.00 | 53 | 1017.5 |
| 20260502204245 | 10 | 8 | 1.6 | 6.4 | 0.00 | 0.00 | 0.00 | 52 | 1017.5 |
| 20260502203745 | 10 | 352 | 0.0 | 12.9 | 0.00 | 0.00 | 0.00 | 48 | 1017.5 |
| 20260502203245 | 11 | 305 | 0.0 | 8.0 | 0.00 | 0.00 | 0.00 | 48 | 1017.5 |
| 20260502202745 | 11 | 322 | 1.6 | 11.3 | 0.00 | 0.00 | 0.00 | 52 | 1017.6 |
| 20260502202245 | 11 | 250 | 0.0 | 8.0 | 0.00 | 0.00 | 0.00 | 50 | 1017.6 |
| 20260502201745 | 11 | 358 | 4.8 | 14.5 | 0.00 | 0.00 | 0.00 | 50 | 1017.6 |
| 20260502201245 | 11 | 12 | 3.2 | 9.7 | 0.00 | 0.00 | 0.00 | 48 | 1017.7 |
| 20260502200745 | 11 | 272 | 6.4 | 11.3 | 0.00 | 0.00 | 0.00 | 47 | 1017.8 |
| 20260502200245 | 11 | 298 | 6.4 | 14.5 | 0.00 | 0.00 | 0.00 | 50 | 1017.8 |
| 20260502195745 | 11 | 337 | 0.0 | 9.7 | 0.00 | 0.00 | 0.00 | 49 | 1017.9 |
| 20260502195245 | 11 | 11 | 3.2 | 6.4 | 0.00 | 0.00 | 0.00 | 47 | 1017.9 |
| 20260502194745 | 11 | 313 | 3.2 | 8.0 | 0.00 | 0.00 | 0.00 | 48 | 1017.9 |